This demonstration page uses our WeatherBlox Daily Observations layout. Learn more.

Left ArrowRight Arrow

39.51506, -84.39828

Hourly Observations for March 12, 2020

Temp ( °F °C ) Dew Point ( °F °C ) Humidity (%) Winds ( mph kmh ) Pressure ( in mb ) Visibility ( mi km ) Precip ( " mm )
12:15 am 00:15 Cloudy 47 8.2 43 6.2 87 87 Calm 30.03 1017 10 16.0934 0 0
12:35 am 00:35 Cloudy 47 8.1 44 6.4 89 89 Calm 30.04 1017 10 16.0934 0 0
12:55 am 00:55 Cloudy 46 8 44 6.5 90 90 Calm 30.03 1017 10 16.0934 0 0
1:15 am 01:15 Cloudy 46 8 43 6.3 89 89 Calm 30.03 1017 10 16.0934 0 0
1:35 am 01:35 Cloudy 46 8 44 6.4 90 90 Calm 30.03 1017 10 16.0934 0 0
1:55 am 01:55 Cloudy 46 7.9 44 6.6 92 92 Calm 30.02 1017 10 16.0934 0 0
2:15 am 02:15 Cloudy 46 7.9 44 6.7 92 92 Calm 30.02 1017 10 16.0934 0 0
2:35 am 02:35 Cloudy 46 7.9 44 6.5 91 91 Calm 30.02 1017 10 16.0934 0 0
2:55 am 02:55 Cloudy 46 7.9 44 6.4 90 90 Calm 30.01 1016 10 16.0934 0 0
3:15 am 03:15 Cloudy 46 7.8 44 6.4 91 91 Calm 30.02 1017 10 16.0934 0 0
3:35 am 03:35 Cloudy 46 7.8 44 6.4 91 91 Calm 30.01 1016 10 16.0934 0 0
3:55 am 03:55 Cloudy 46 7.8 44 6.4 91 91 Calm 30.01 1016 10 16.0934 0 0
4:15 am 04:15 Cloudy 46 7.8 43 6.2 90 90 Calm 30.01 1016 10 16.0934 0 0
4:35 am 04:35 Cloudy 46 7.8 43 6.3 90 90 Calm 30 1016 10 16.0934 0 0
4:55 am 04:55 Cloudy 46 7.8 43 6.3 90 90 Calm 30 1016 10 16.0934 0 0
5:15 am 05:15 Cloudy 46 7.8 44 6.4 91 91 Calm 29.99 1016 10 16.0934 0 0
5:35 am 05:35 Cloudy 46 7.8 43 6.2 90 90 N 3 6 29.99 1016 10 16.0934 0 0
5:55 am 05:55 Partly Cloudy 45 7.1 42 5.6 90 90 Calm 29.99 1015 10 16.0934 0 0
6:15 am 06:15 Partly Cloudy 44 6.7 42 5.5 92 92 Calm 29.99 1015 10 16.0934 0 0
6:35 am 06:35 Clear 42 5.8 41 5.2 96 96 Calm 30 1016 10 16.0934 0 0
6:55 am 06:55 Clear 39 3.8 38 3.4 97 97 Calm 30 1016 10 16.0934 0 0
7:15 am 07:15 Clear 40 4.5 40 4.4 99 99 Calm 30 1016 7 11.26538 0 0
7:35 am 07:35 Mostly Cloudy with Mist and Fog 39 3.8 39 3.7 99 99 Calm 30 1016 1.75 2.816345 0 0
7:55 am 07:55 Cloudy 40 4.4 40 4.4 100 100 NNE 3 6 30 1016 10 16.0934 0 0
8:15 am 08:15 Cloudy 42 5.4 41 5.2 99 99 Calm 30 1016 10 16.0934 0 0
8:35 am 08:35 Cloudy 43 6 42 5.7 98 98 Calm 30 1016 10 16.0934 0 0
8:55 am 08:55 Cloudy 44 6.6 42 5.8 95 95 Calm 30.01 1016 10 16.0934 0 0
9:15 am 09:15 Cloudy 45 7 43 6.1 94 94 Calm 30.01 1016 10 16.0934 0 0
9:35 am 09:35 Cloudy 46 7.6 43 6.3 92 92 Calm 30 1016 10 16.0934 0 0
9:55 am 09:55 Cloudy 46 8 43 6.1 88 88 NE 3 6 29.98 1015 10 16.0934 0 0
10:15 am 10:15 Cloudy 48 8.9 44 6.7 86 86 Calm 29.96 1015 10 16.0934 0 0
10:35 am 10:35 Cloudy 48 9.1 44 6.8 86 86 NNE 3 6 29.95 1014 10 16.0934 0 0
10:55 am 10:55 Cloudy 50 9.8 44 6.8 82 82 Calm 29.96 1015 10 16.0934 0 0
11:15 am 11:15 Cloudy 51 10.8 45 7.2 79 79 Calm 29.96 1014 10 16.0934 0 0
11:35 am 11:35 Cloudy 52 11.1 45 7.1 77 77 Calm 29.95 1014 10 16.0934 0 0
11:55 am 11:55 Sunny 54 12.3 46 7.6 73 73 Calm 29.92 1013 10 16.0934 0 0
12:15 pm 12:15 Sunny 56 13.4 46 7.9 70 70 SSE 5 7 29.91 1013 10 16.0934 0 0
12:35 pm 12:35 Sunny 59 14.9 47 8.5 66 66 SSE 7 11 29.9 1012 10 16.0934 0 0
12:55 pm 12:55 Partly Cloudy 61 16 47 8.3 60 60 S 7 11 29.89 1012 10 16.0934 0 0
1:15 pm 13:15 Partly Cloudy 61 15.9 48 8.8 63 63 SSE 9 15 29.88 1012 10 16.0934 0 0
1:35 pm 13:35 Cloudy 61 16.2 48 8.7 61 61 S 7 11 29.86 1011 10 16.0934 0 0
1:55 pm 13:55 Cloudy 62 16.8 48 9 60 60 SSW 7 11 29.86 1011 10 16.0934 0 0
2:15 pm 14:15 Partly Cloudy 64 17.5 49 9.3 59 59 S 8 13 29.83 1010 10 16.0934 0 0
2:35 pm 14:35 Mostly Cloudy 64 17.9 49 9.5 58 58 S 10 17 29.82 1010 10 16.0934 0 0
2:55 pm 14:55 Cloudy 64 17.6 49 9.5 59 59 SSW 6 9 29.81 1009 10 16.0934 0 0
3:15 pm 15:15 Partly Cloudy 64 18 49 9.4 57 57 SSW 7 11 29.79 1009 10 16.0934 0 0
3:35 pm 15:35 Mostly Cloudy 64 18 50 9.8 59 59 S 10 17 29.79 1009 10 16.0934 0 0
3:55 pm 15:55 Cloudy 64 17.7 49 9.7 60 60 S 7 11 29.77 1008 10 16.0934 0 0
4:15 pm 16:15 Mostly Cloudy 64 17.7 50 9.8 60 60 S 10 17 29.77 1008 10 16.0934 0 0
4:35 pm 16:35 Cloudy 64 17.5 50 10 62 62 S 9 15 29.77 1008 10 16.0934 0 0
4:55 pm 16:55 Mostly Cloudy 64 17.6 51 10.3 62 62 S 9 15 29.76 1008 10 16.0934 0 0
5:15 pm 17:15 Sunny 64 17.6 51 10.3 62 62 SSW 9 15 29.75 1007 10 16.0934 0 0
5:35 pm 17:35 Cloudy 64 17.6 51 10.5 63 63 S 10 17 29.76 1008 10 16.0934 0 0
5:55 pm 17:55 Mostly Cloudy 63 17.4 51 10.7 65 65 S 6 9 29.75 1007 10 16.0934 0 0
6:15 pm 18:15 Cloudy with Light Rain 63 17.2 51 10.8 66 66 S 8 13 29.73 1007 10 16.0934 0 0
6:35 pm 18:35 Cloudy with Light Rain 62 16.8 53 11.5 71 71 SSE 3 6 29.7 1006 10 16.0934 0 0
6:55 pm 18:55 Cloudy 62 16.8 53 11.9 73 73 S 8 13 29.7 1006 10 16.0934 0 0
7:15 pm 19:15 Cloudy with Light Rain 61 16.3 54 12.3 77 77 S 5 7 29.71 1006 10 16.0934 0 0
7:35 pm 19:35 Cloudy with Light Rain 60 15.6 56 13.2 86 86 S 7 11 29.72 1006 10 16.0934 0 0
7:55 pm 19:55 Partly Cloudy 60 15.4 56 13.5 89 89 SSE 15 24 29.64 1004 10 16.0934 0 0
8:15 pm 20:15 Clear 59 15.2 55 12.6 85 85 S 12 19 29.66 1004 10 16.0934 0 0
8:35 pm 20:35 Clear 59 14.8 55 12.8 88 88 SSW 13 20 29.66 1004 10 16.0934 0 0
8:55 pm 20:55 Clear with Nearby Thunderstorms 58 14.7 55 12.9 89 89 S 10 17 29.66 1004 10 16.0934 0 0
9:15 pm 21:15 Partly Cloudy 59 14.8 55 12.9 88 88 S 10 17 29.66 1004 10 16.0934 0 0
9:35 pm 21:35 Mostly Cloudy 59 14.9 56 13.2 90 90 S 9 15 29.67 1005 10 16.0934 0 0
9:55 pm 21:55 Cloudy 59 15.2 56 13.6 90 90 S 13 20 29.67 1005 10 16.0934 0 0
10:15 pm 22:15 Cloudy with Rain 60 15.5 57 13.9 90 90 S 12 19 29.67 1005 10 16.0934 0 0
10:35 pm 22:35 Cloudy with Light Rain 59 15.2 58 14.2 94 94 S 9 15 29.66 1004 10 16.0934 0 0
10:55 pm 22:55 Cloudy with Light Rain 60 15.4 58 14.7 96 96 SSW 10 17 29.67 1005 7 11.26538 0 0
11:15 pm 23:15 Cloudy with Light Rain 60 15.3 58 14.7 96 96 SSW 10 17 29.67 1005 7 11.26538 0 0
11:35 pm 23:35 Cloudy 60 15.3 59 14.8 97 97 S 10 17 29.66 1004 10 16.0934 0 0
11:55 pm 23:55 Cloudy with Light Rain 60 15.4 59 14.8 96 96 WSW 8 13 29.67 1005 7 11.26538 0 0

Powered by AerisWeather